StationID,Date,MaxTemp,MinTemp,Precipitation,Snowfall,SnowDepth
"CA004057180","1963-11-01",51.08,19.94,0.00,0.00,0.00
"CA004057180","1963-11-02",55.04,39.02,0.00,0.00,0.00
"CA004057180","1963-11-03",51.98,26.96,0.00,0.00,0.00
"CA004057180","1963-11-04",46.94,21.02,0.00,0.00,0.00
"CA004057180","1963-11-05",42.08,17.96,0.00,0.00,0.00
"CA004057180","1963-11-06",39.92,19.94,0.00,0.00,0.00
"CA004057180","1963-11-07",35.96,26.96,0.00,0.00,0.00
"CA004057180","1963-11-08",39.92,21.92,0.00,0.00,0.00
"CA004057180","1963-11-09",30.02,23.00,0.00,0.00,0.00
"CA004057180","1963-11-10",26.06,21.02,0.00,0.00,0.00
"CA004057180","1963-11-11",26.96,19.94,0.00,0.00,0.00
"CA004057180","1963-11-12",32.00,24.08,0.00,0.00,0.00
"CA004057180","1963-11-13",39.02,24.98,0.00,0.00,0.00
"CA004057180","1963-11-14",35.06,19.94,0.00,0.00,0.00
"CA004057180","1963-11-15",48.02,26.06,0.00,0.00,0.00
"CA004057180","1963-11-16",35.96,23.00,0.00,0.00,0.00
"CA004057180","1963-11-17",44.06,17.06,18.00,18.00,180.00
"CA004057180","1963-11-18",14.00,10.94,0.00,0.00,180.00
"CA004057180","1963-11-19",8.96,3.02,41.00,41.00,50.00
"CA004057180","1963-11-20",-5.08,-14.08,0.00,0.00,50.00
"CA004057180","1963-11-21",3.92,-18.04,13.00,13.00,50.00
"CA004057180","1963-11-22",5.00,-0.94,0.00,0.00,50.00
"CA004057180","1963-11-23",17.96,-14.98,8.00,8.00,50.00
"CA004057180","1963-11-24",19.94,3.92,0.00,0.00,50.00
"CA004057180","1963-11-25",39.02,6.98,0.00,0.00,50.00
"CA004057180","1963-11-26",37.04,26.96,81.00,81.00,50.00
"CA004057180","1963-11-27",30.92,30.02,0.00,0.00,130.00
"CA004057180","1963-11-28",26.96,15.08,0.00,0.00,130.00
"CA004057180","1963-11-29",28.04,19.94,0.00,0.00,100.00
"CA004057180","1963-11-30",23.00,10.04,0.00,0.00,100.00
"CA004057180","1963-12-01",33.98,17.96,0.00,0.00,100.00
"CA004057180","1963-12-02",39.02,15.08,0.00,0.00,100.00
"CA004057180","1963-12-03",32.00,17.96,0.00,0.00,100.00
"CA004057180","1963-12-04",30.02,21.92,0.00,0.00,100.00
"CA004057180","1963-12-05",35.06,21.02,0.00,0.00,100.00
"CA004057180","1963-12-06",30.02,26.96,0.00,0.00,100.00
"CA004057180","1963-12-07",24.98,19.94,3.00,3.00,100.00
"CA004057180","1963-12-08",15.08,10.04,15.00,15.00,130.00
"CA004057180","1963-12-09",14.00,5.00,5.00,5.00,130.00
"CA004057180","1963-12-10",8.06,1.94,0.00,0.00,130.00
"CA004057180","1963-12-11",17.96,-2.02,74.00,74.00,180.00
"CA004057180","1963-12-12",-7.06,,0.00,0.00,180.00
"CA004057180","1963-12-13",-9.94,-23.08,0.00,0.00,180.00
"CA004057180","1963-12-14",-16.06,-29.92,0.00,0.00,180.00
"CA004057180","1963-12-15",-11.02,-27.04,0.00,0.00,180.00
"CA004057180","1963-12-16",3.92,-18.04,3.00,3.00,180.00
"CA004057180","1963-12-17",-5.98,-18.04,0.00,0.00,180.00
"CA004057180","1963-12-18",-5.98,-16.06,0.00,0.00,180.00
"CA004057180","1963-12-19",-7.96,-11.92,0.00,0.00,180.00
"CA004057180","1963-12-20",3.02,-16.96,0.00,0.00,180.00
"CA004057180","1963-12-21",8.06,-5.08,5.00,5.00,180.00
"CA004057180","1963-12-22",35.06,1.94,0.00,0.00,180.00
"CA004057180","1963-12-23",42.08,12.92,0.00,0.00,150.00
"CA004057180","1963-12-24",28.04,21.02,0.00,0.00,150.00
"CA004057180","1963-12-25",10.04,6.98,8.00,8.00,150.00
"CA004057180","1963-12-26",8.06,3.02,0.00,0.00,150.00
"CA004057180","1963-12-27",6.08,-5.08,0.00,0.00,150.00
"CA004057180","1963-12-28",6.08,-14.98,0.00,0.00,150.00
"CA004057180","1963-12-29",19.94,-7.96,0.00,0.00,150.00
"CA004057180","1963-12-30",30.92,10.94,0.00,0.00,100.00
"CA004057180","1963-12-31",41.00,26.06,8.00,0.00,50.00
"CA004057180","1964-01-01",35.96,26.06,0.00,0.00,30.00
"CA004057180","1964-01-02",35.96,26.06,0.00,0.00,30.00
"CA004057180","1964-01-03",33.08,19.04,0.00,0.00,0.00
"CA004057180","1964-01-04",23.00,8.96,0.00,0.00,0.00
"CA004057180","1964-01-05",24.08,10.94,0.00,0.00,0.00
"CA004057180","1964-01-06",23.00,15.08,0.00,0.00,0.00
"CA004057180","1964-01-07",15.98,6.98,0.00,0.00,0.00
"CA004057180","1964-01-08",3.92,-0.04,0.00,0.00,0.00
"CA004057180","1964-01-09",5.00,-13.00,8.00,8.00,30.00
"CA004057180","1964-01-10",6.98,-2.02,10.00,10.00,30.00
"CA004057180","1964-01-11",8.96,-5.08,0.00,0.00,30.00
"CA004057180","1964-01-12",17.96,-11.92,0.00,0.00,30.00
"CA004057180","1964-01-13",24.08,10.04,0.00,0.00,30.00
"CA004057180","1964-01-14",28.04,14.00,0.00,0.00,30.00
"CA004057180","1964-01-15",14.00,8.96,0.00,0.00,30.00
"CA004057180","1964-01-16",24.98,3.02,79.00,79.00,100.00
"CA004057180","1964-01-17",21.92,8.06,0.00,0.00,100.00
"CA004057180","1964-01-18",28.04,6.98,0.00,0.00,100.00
"CA004057180","1964-01-19",10.04,-2.02,56.00,56.00,150.00
"CA004057180","1964-01-20",10.04,-2.92,8.00,8.00,180.00
"CA004057180","1964-01-21",3.92,1.04,33.00,33.00,200.00
"CA004057180","1964-01-22",-4.00,-5.98,8.00,8.00,200.00
"CA004057180","1964-01-23",6.08,-16.06,23.00,23.00,230.00
"CA004057180","1964-01-24",5.00,-7.06,0.00,0.00,230.00
"CA004057180","1964-01-25",6.08,-14.08,0.00,0.00,230.00
"CA004057180","1964-01-26",8.06,-2.92,0.00,0.00,230.00
"CA004057180","1964-01-27",12.02,-20.02,0.00,0.00,230.00
"CA004057180","1964-01-28",14.00,3.92,0.00,0.00,230.00
"CA004057180","1964-01-29",35.06,5.00,0.00,0.00,230.00
"CA004057180","1964-01-30",28.94,17.96,0.00,0.00,230.00
"CA004057180","1964-01-31",26.96,19.94,0.00,0.00,230.00
"CA004057180","1964-02-01",28.04,10.94,0.00,0.00,230.00
"CA004057180","1964-02-02",28.94,19.94,0.00,0.00,230.00
"CA004057180","1964-02-03",33.08,21.92,0.00,0.00,200.00
"CA004057180","1964-02-04",37.04,14.00,28.00,28.00,200.00
"CA004057180","1964-02-05",28.94,23.00,0.00,0.00,230.00
"CA004057180","1964-02-06",30.92,8.96,36.00,36.00,250.00
"CA004057180","1964-02-07",33.98,12.92,0.00,0.00,250.00
"CA004057180","1964-02-08",28.94,17.06,0.00,0.00,250.00
"CA004057180","1964-02-09",19.94,10.04,0.00,0.00,250.00
"CA004057180","1964-02-10",35.06,10.94,0.00,0.00,250.00
"CA004057180","1964-02-11",30.02,21.92,3.00,3.00,250.00
"CA004057180","1964-02-12",24.08,5.00,0.00,0.00,250.00
"CA004057180","1964-02-13",30.02,19.94,0.00,0.00,250.00
"CA004057180","1964-02-14",19.04,1.94,0.00,0.00,250.00
"CA004057180","1964-02-15",32.00,3.92,0.00,0.00,230.00
"CA004057180","1964-02-16",28.94,12.02,0.00,0.00,230.00
"CA004057180","1964-02-17",26.06,15.08,0.00,0.00,230.00
"CA004057180","1964-02-18",14.00,-2.02,15.00,15.00,230.00
"CA004057180","1964-02-19",14.00,10.94,8.00,8.00,230.00
"CA004057180","1964-02-20",24.98,8.96,0.00,0.00,230.00
"CA004057180","1964-02-21",39.92,10.04,25.00,25.00,230.00
"CA004057180","1964-02-22",,-5.98,0.00,0.00,230.00
"CA004057180","1964-02-23",32.00,,15.00,15.00,230.00
"CA004057180","1964-02-24",17.06,6.98,3.00,3.00,230.00
"CA004057180","1964-02-25",14.00,5.00,0.00,0.00,230.00
"CA004057180","1964-02-26",30.92,-7.96,0.00,0.00,230.00
"CA004057180","1964-02-27",35.06,12.02,0.00,0.00,230.00
"CA004057180","1964-02-28",39.02,17.06,0.00,0.00,200.00
"CA004057180","1964-02-29",35.06,15.98,0.00,0.00,200.00
"CA004057180","1964-03-01",35.96,21.92,0.00,0.00,180.00
"CA004057180","1964-03-02",8.96,-7.06,0.00,0.00,180.00
"CA004057180","1964-03-03",21.02,-7.06,0.00,0.00,180.00
"CA004057180","1964-03-04",14.00,-20.02,8.00,8.00,180.00
"CA004057180","1964-03-05",12.92,1.94,0.00,0.00,180.00
"CA004057180","1964-03-06",14.00,-11.02,0.00,0.00,180.00
"CA004057180","1964-03-07",15.98,-5.08,0.00,0.00,150.00
"CA004057180","1964-03-08",24.08,3.92,0.00,0.00,150.00
"CA004057180","1964-03-09",12.02,1.04,30.00,30.00,180.00
"CA004057180","1964-03-10",15.98,-0.94,0.00,0.00,180.00
"CA004057180","1964-03-11",37.04,3.92,0.00,0.00,130.00
"CA004057180","1964-03-12",42.08,24.08,0.00,0.00,80.00
"CA004057180","1964-03-13",30.92,17.06,0.00,0.00,50.00
"CA004057180","1964-03-14",39.02,15.98,0.00,0.00,30.00
"CA004057180","1964-03-15",37.04,,0.00,0.00,30.00
"CA004057180","1964-03-16",3.92,-5.08,15.00,15.00,50.00
"CA004057180","1964-03-17",26.96,-0.04,0.00,0.00,50.00
"CA004057180","1964-03-18",24.08,6.08,0.00,0.00,50.00
"CA004057180","1964-03-19",17.96,12.02,0.00,0.00,50.00
"CA004057180","1964-03-20",10.94,-2.92,0.00,0.00,50.00
"CA004057180","1964-03-21",17.06,3.02,43.00,43.00,80.00
"CA004057180","1964-03-22",10.04,8.06,0.00,0.00,80.00
"CA004057180","1964-03-23",6.08,-7.96,0.00,0.00,80.00
"CA004057180","1964-03-24",3.92,-14.98,0.00,0.00,80.00
"CA004057180","1964-03-25",12.02,-9.94,0.00,0.00,80.00
"CA004057180","1964-03-26",12.02,-5.98,0.00,0.00,80.00
"CA004057180","1964-03-27",17.96,-0.04,0.00,0.00,50.00
"CA004057180","1964-03-28",6.98,-0.94,0.00,0.00,50.00
"CA004057180","1964-03-29",37.04,-2.92,0.00,0.00,30.00
"CA004057180","1964-03-30",39.02,12.92,0.00,0.00,0.00
"CA004057180","1964-03-31",53.96,24.98,0.00,0.00,0.00
"CA004057180","1964-04-01",41.00,26.06,0.00,0.00,0.00
"CA004057180","1964-04-02",44.96,30.02,0.00,0.00,0.00
"CA004057180","1964-04-03",39.02,32.00,0.00,0.00,0.00
"CA004057180","1964-04-04",57.02,32.00,0.00,0.00,0.00
"CA004057180","1964-04-05",46.94,28.94,0.00,0.00,0.00
"CA004057180","1964-04-06",28.04,21.92,0.00,0.00,0.00
"CA004057180","1964-04-07",46.04,19.04,0.00,0.00,0.00
"CA004057180","1964-04-08",51.98,26.96,0.00,0.00,0.00
"CA004057180","1964-04-09",53.06,28.04,0.00,0.00,0.00
"CA004057180","1964-04-10",66.92,35.06,0.00,0.00,0.00
"CA004057180","1964-04-11",51.98,35.06,0.00,0.00,0.00
"CA004057180","1964-04-12",53.96,28.94,0.00,0.00,0.00
"CA004057180","1964-04-13",55.04,28.94,0.00,0.00,0.00
"CA004057180","1964-04-14",57.02,26.96,0.00,0.00,0.00
"CA004057180","1964-04-15",44.06,28.04,0.00,0.00,0.00
"CA004057180","1964-04-16",37.04,28.04,0.00,0.00,0.00
"CA004057180","1964-04-17",41.00,21.92,0.00,0.00,0.00
"CA004057180","1964-04-18",48.92,21.92,0.00,0.00,0.00
"CA004057180","1964-04-19",60.08,30.92,0.00,0.00,0.00
"CA004057180","1964-04-20",51.98,39.92,0.00,0.00,0.00
"CA004057180","1964-04-21",48.02,24.98,0.00,0.00,0.00
"CA004057180","1964-04-22",46.94,33.98,20.00,0.00,0.00
"CA004057180","1964-04-23",53.96,35.06,0.00,0.00,0.00
"CA004057180","1964-04-24",57.02,35.96,0.00,0.00,0.00
"CA004057180","1964-04-25",64.94,28.94,117.00,0.00,0.00
"CA004057180","1964-04-26",66.92,42.98,0.00,0.00,0.00
"CA004057180","1964-04-27",53.96,37.04,0.00,0.00,0.00
"CA004057180","1964-04-28",60.98,26.96,0.00,0.00,0.00
"CA004057180","1964-04-29",69.98,33.08,0.00,0.00,0.00
"CA004057180","1964-04-30",66.92,37.04,0.00,0.00,0.00
"CA004057180","1964-05-01",64.94,46.94,0.00,0.00,0.00
"CA004057180","1964-05-02",60.98,48.02,28.00,0.00,0.00
"CA004057180","1964-05-03",50.00,44.06,269.00,0.00,0.00
"CA004057180","1964-05-04",59.00,44.06,38.00,0.00,0.00
"CA004057180","1964-05-05",57.02,44.06,3.00,0.00,0.00
"CA004057180","1964-05-06",62.06,39.92,48.00,0.00,0.00
"CA004057180","1964-05-07",55.04,46.04,3.00,0.00,0.00
"CA004057180","1964-05-08",60.98,46.94,0.00,0.00,0.00
"CA004057180","1964-05-09",71.96,39.92,,0.00,0.00
"CA004057180","1964-05-10",59.00,46.94,,0.00,0.00
"CA004057180","1964-05-11",57.92,33.08,0.00,0.00,0.00
"CA004057180","1964-05-12",68.00,39.92,0.00,0.00,0.00
"CA004057180","1964-05-13",77.00,42.98,0.00,0.00,0.00
"CA004057180","1964-05-14",60.98,42.98,0.00,0.00,0.00
"CA004057180","1964-05-15",66.02,33.98,0.00,0.00,0.00
"CA004057180","1964-05-16",77.00,41.00,0.00,0.00,0.00
"CA004057180","1964-05-17",86.00,44.06,0.00,0.00,0.00
"CA004057180","1964-05-18",75.02,50.00,0.00,0.00,0.00
"CA004057180","1964-05-19",86.00,46.04,0.00,0.00,0.00
"CA004057180","1964-05-20",87.08,59.00,0.00,0.00,0.00
"CA004057180","1964-05-21",77.00,57.92,0.00,0.00,0.00
"CA004057180","1964-05-22",64.94,42.98,0.00,0.00,0.00
"CA004057180","1964-05-23",66.92,39.02,0.00,0.00,0.00
"CA004057180","1964-05-24",80.06,44.06,8.00,0.00,0.00
"CA004057180","1964-05-25",57.92,42.08,0.00,0.00,0.00
"CA004057180","1964-05-26",66.92,37.94,0.00,0.00,0.00
"CA004057180","1964-05-27",62.96,28.94,0.00,0.00,0.00
"CA004057180","1964-05-28",64.04,39.92,0.00,0.00,0.00
"CA004057180","1964-05-29",62.06,41.00,0.00,0.00,0.00
"CA004057180","1964-05-30",64.94,28.94,0.00,0.00,0.00
"CA004057180","1964-05-31",62.96,30.92,0.00,0.00,0.00
"CA004057180","1964-06-01",68.00,33.08,0.00,0.00,0.00
"CA004057180","1964-06-02",73.94,42.98,0.00,0.00,0.00
"CA004057180","1964-06-03",78.98,44.06,0.00,0.00,0.00
"CA004057180","1964-06-04",86.00,55.04,3.00,0.00,0.00
"CA004057180","1964-06-05",73.04,55.94,0.00,0.00,0.00
"CA004057180","1964-06-06",69.98,50.00,0.00,0.00,0.00
"CA004057180","1964-06-07",73.04,44.06,0.00,0.00,0.00
"CA004057180","1964-06-08",69.98,46.04,0.00,0.00,0.00
"CA004057180","1964-06-09",69.08,44.96,0.00,0.00,0.00
"CA004057180","1964-06-10",78.08,44.96,0.00,0.00,0.00
"CA004057180","1964-06-11",77.00,50.00,0.00,0.00,0.00
"CA004057180","1964-06-12",80.06,53.96,0.00,0.00,0.00
"CA004057180","1964-06-13",62.96,42.98,0.00,0.00,0.00
"CA004057180","1964-06-14",71.96,39.92,0.00,0.00,0.00
"CA004057180","1964-06-15",69.08,46.04,0.00,0.00,0.00
"CA004057180","1964-06-16",60.08,48.92,3.00,0.00,0.00
"CA004057180","1964-06-17",55.94,51.08,13.00,0.00,0.00
"CA004057180","1964-06-18",64.94,51.08,0.00,0.00,0.00
"CA004057180","1964-06-19",71.96,42.98,0.00,0.00,0.00
"CA004057180","1964-06-20",77.00,46.04,0.00,0.00,0.00
"CA004057180","1964-06-21",78.98,48.02,0.00,0.00,0.00
"CA004057180","1964-06-22",71.06,51.98,0.00,0.00,0.00
"CA004057180","1964-06-23",80.06,46.04,5.00,0.00,0.00
"CA004057180","1964-06-24",80.96,48.92,0.00,0.00,0.00
"CA004057180","1964-06-25",78.08,55.04,0.00,0.00,0.00
"CA004057180","1964-06-26",86.00,46.94,84.00,0.00,0.00
"CA004057180","1964-06-27",87.98,60.98,20.00,0.00,0.00
"CA004057180","1964-06-28",75.92,53.06,0.00,0.00,0.00
"CA004057180","1964-06-29",68.00,48.92,0.00,0.00,0.00
"CA004057180","1964-06-30",71.96,42.98,18.00,0.00,0.00
"CA004057180","1964-07-01",77.00,55.04,0.00,0.00,0.00
"CA004057180","1964-07-02",84.92,51.98,0.00,0.00,0.00
"CA004057180","1964-07-03",78.98,59.00,0.00,0.00,0.00
"CA004057180","1964-07-04",78.98,57.92,0.00,0.00,0.00
"CA004057180","1964-07-05",80.06,51.08,36.00,0.00,0.00
"CA004057180","1964-07-06",82.94,60.08,0.00,0.00,0.00
"CA004057180","1964-07-07",87.08,57.02,0.00,0.00,0.00
"CA004057180","1964-07-08",84.02,59.00,0.00,0.00,0.00
"CA004057180","1964-07-09",82.94,55.94,0.00,0.00,0.00
"CA004057180","1964-07-10",82.04,62.06,5.00,0.00,0.00
"CA004057180","1964-07-11",89.96,62.96,0.00,0.00,0.00
"CA004057180","1964-07-12",98.06,64.94,0.00,0.00,0.00
"CA004057180","1964-07-13",91.94,69.98,0.00,0.00,0.00
"CA004057180","1964-07-14",75.02,62.06,13.00,0.00,0.00
"CA004057180","1964-07-15",75.02,60.08,0.00,0.00,0.00
"CA004057180","1964-07-16",77.00,64.04,5.00,0.00,0.00
"CA004057180","1964-07-17",75.02,53.06,0.00,0.00,0.00
"CA004057180","1964-07-18",80.06,51.08,46.00,0.00,0.00
"CA004057180","1964-07-19",78.08,59.00,0.00,0.00,0.00
"CA004057180","1964-07-20",84.92,50.00,0.00,0.00,0.00
"CA004057180","1964-07-21",95.00,60.08,0.00,0.00,0.00
"CA004057180","1964-07-22",87.98,57.02,8.00,0.00,0.00
"CA004057180","1964-07-23",73.04,55.94,5.00,0.00,0.00
"CA004057180","1964-07-24",77.00,55.04,0.00,0.00,0.00
"CA004057180","1964-07-25",78.98,51.98,8.00,0.00,0.00
"CA004057180","1964-07-26",77.00,50.00,0.00,0.00,0.00
"CA004057180","1964-07-27",64.04,51.08,0.00,0.00,0.00
"CA004057180","1964-07-28",73.94,46.04,0.00,0.00,0.00
"CA004057180","1964-07-29",82.94,48.92,51.00,0.00,0.00
"CA004057180","1964-07-30",84.92,57.92,25.00,0.00,0.00
"CA004057180","1964-07-31",86.00,60.08,0.00,0.00,0.00
"CA004057180","1964-08-01",80.96,53.96,0.00,0.00,0.00
"CA004057180","1964-08-02",78.08,55.94,0.00,0.00,0.00
"CA004057180","1964-08-03",78.08,53.96,0.00,0.00,0.00
"CA004057180","1964-08-04",89.06,57.02,0.00,0.00,0.00
"CA004057180","1964-08-05",77.00,60.98,0.00,0.00,0.00
"CA004057180","1964-08-06",75.92,55.04,0.00,0.00,0.00
"CA004057180","1964-08-07",82.04,46.04,0.00,0.00,0.00
"CA004057180","1964-08-08",93.92,57.92,0.00,0.00,0.00
"CA004057180","1964-08-09",82.94,50.00,132.00,0.00,0.00
"CA004057180","1964-08-10",55.04,48.02,8.00,0.00,0.00
"CA004057180","1964-08-11",64.04,35.96,0.00,0.00,0.00
"CA004057180","1964-08-12",69.08,46.04,0.00,0.00,0.00
"CA004057180","1964-08-13",82.94,48.02,3.00,0.00,0.00
"CA004057180","1964-08-14",77.00,55.94,0.00,0.00,0.00
"CA004057180","1964-08-15",75.92,,33.00,0.00,0.00
"CA004057180","1964-08-16",80.96,57.02,0.00,0.00,0.00
"CA004057180","1964-08-17",84.92,57.02,0.00,0.00,0.00
"CA004057180","1964-08-18",84.92,57.92,0.00,0.00,0.00
"CA004057180","1964-08-19",69.08,57.92,86.00,0.00,0.00
"CA004057180","1964-08-20",60.08,55.04,15.00,0.00,0.00
"CA004057180","1964-08-21",66.92,51.08,0.00,0.00,0.00
"CA004057180","1964-08-22",71.96,50.00,15.00,0.00,0.00
"CA004057180","1964-08-23",60.98,46.94,56.00,0.00,0.00
"CA004057180","1964-08-24",59.00,42.98,0.00,0.00,0.00
"CA004057180","1964-08-25",75.02,39.02,0.00,0.00,0.00
"CA004057180","1964-08-26",75.02,53.06,0.00,0.00,0.00
"CA004057180","1964-08-27",69.98,50.00,0.00,0.00,0.00
"CA004057180","1964-08-28",69.98,48.02,0.00,0.00,0.00
"CA004057180","1964-08-29",66.02,39.02,8.00,0.00,0.00
"CA004057180","1964-08-30",68.00,50.00,25.00,0.00,0.00
"CA004057180","1964-08-31",62.96,48.92,10.00,0.00,0.00
"CA004057180","1964-09-01",68.00,50.00,157.00,0.00,0.00
"CA004057180","1964-09-02",55.94,51.98,107.00,0.00,0.00
"CA004057180","1964-09-03",60.08,51.08,0.00,0.00,0.00
"CA004057180","1964-09-04",64.04,44.06,0.00,0.00,0.00
"CA004057180","1964-09-05",51.08,33.08,53.00,38.00,50.00
"CA004057180","1964-09-06",50.00,33.98,0.00,0.00,0.00
"CA004057180","1964-09-07",51.08,35.96,23.00,0.00,0.00
"CA004057180","1964-09-08",51.08,42.98,66.00,0.00,0.00
"CA004057180","1964-09-09",53.06,44.96,8.00,0.00,0.00
"CA004057180","1964-09-10",50.00,33.98,0.00,0.00,0.00
"CA004057180","1964-09-11",59.00,33.08,0.00,0.00,0.00
"CA004057180","1964-09-12",69.98,35.96,0.00,0.00,0.00
"CA004057180","1964-09-13",55.04,39.02,0.00,0.00,0.00
"CA004057180","1964-09-14",55.04,35.06,0.00,0.00,0.00
"CA004057180","1964-09-15",66.92,39.02,0.00,0.00,0.00
"CA004057180","1964-09-16",75.02,42.98,0.00,0.00,0.00
"CA004057180","1964-09-17",78.08,53.06,0.00,0.00,0.00
"CA004057180","1964-09-18",57.92,51.08,15.00,0.00,0.00
"CA004057180","1964-09-19",64.04,37.94,0.00,0.00,0.00
"CA004057180","1964-09-20",57.92,41.00,0.00,0.00,0.00
"CA004057180","1964-09-21",62.06,35.06,23.00,0.00,0.00
"CA004057180","1964-09-22",57.92,46.94,5.00,0.00,0.00
"CA004057180","1964-09-23",60.08,39.92,0.00,0.00,0.00
"CA004057180","1964-09-24",59.00,37.04,0.00,0.00,0.00
"CA004057180","1964-09-25",53.96,35.96,0.00,0.00,0.00
"CA004057180","1964-09-26",48.02,32.00,0.00,0.00,0.00
"CA004057180","1964-09-27",57.02,33.98,3.00,0.00,0.00
"CA004057180","1964-09-28",48.02,33.98,0.00,0.00,0.00
"CA004057180","1964-09-29",48.92,33.08,0.00,0.00,0.00
"CA004057180","1964-09-30",69.08,39.02,46.00,0.00,0.00
"CA004057180","1964-10-01",55.04,42.98,0.00,0.00,0.00
"CA004057180","1964-10-02",57.92,33.08,0.00,0.00,0.00
"CA004057180","1964-10-03",48.92,39.92,3.00,0.00,0.00
"CA004057180","1964-10-04",55.04,33.08,0.00,0.00,0.00
"CA004057180","1964-10-05",55.94,32.00,0.00,0.00,0.00
"CA004057180","1964-10-06",69.08,30.92,0.00,0.00,0.00
"CA004057180","1964-10-07",50.00,39.02,0.00,0.00,0.00
"CA004057180","1964-10-08",55.04,30.02,0.00,0.00,0.00
"CA004057180","1964-10-09",60.08,30.02,0.00,0.00,0.00
"CA004057180","1964-10-10",55.04,41.00,0.00,0.00,0.00
"CA004057180","1964-10-11",62.06,33.98,0.00,0.00,0.00
"CA004057180","1964-10-12",75.92,39.92,0.00,0.00,0.00
"CA004057180","1964-10-13",82.94,44.96,0.00,0.00,0.00
"CA004057180","1964-10-14",69.08,42.08,0.00,0.00,0.00
"CA004057180","1964-10-15",60.98,39.92,0.00,0.00,0.00
"CA004057180","1964-10-16",55.94,28.94,0.00,0.00,0.00
"CA004057180","1964-10-17",48.02,32.00,0.00,0.00,0.00
"CA004057180","1964-10-18",51.08,26.06,0.00,0.00,0.00
"CA004057180","1964-10-19",69.08,28.94,0.00,0.00,0.00
"CA004057180","1964-10-20",60.08,48.92,0.00,0.00,0.00
"CA004057180","1964-10-21",44.96,37.04,8.00,0.00,0.00
"CA004057180","1964-10-22",51.98,21.92,0.00,0.00,0.00
"CA004057180","1964-10-23",60.08,30.02,0.00,0.00,0.00
"CA004057180","1964-10-24",53.96,28.94,0.00,0.00,0.00
"CA004057180","1964-10-25",51.98,26.06,0.00,0.00,0.00
"CA004057180","1964-10-26",35.06,19.04,185.00,102.00,0.00
"CA004057180","1964-10-27",35.06,23.00,0.00,0.00,100.00
"CA004057180","1964-10-28",39.02,24.08,0.00,0.00,50.00
"CA004057180","1964-10-29",50.00,26.06,0.00,0.00,30.00
"CA004057180","1964-10-30",55.04,28.94,0.00,0.00,0.00
"CA004057180","1964-10-31",46.94,28.04,0.00,0.00,0.00
"CA004057180","1964-11-01",57.92,33.98,0.00,0.00,0.00
"CA004057180","1964-11-02",41.00,35.06,0.00,0.00,0.00
"CA004057180","1964-11-03",41.00,28.94,0.00,0.00,0.00
"CA004057180","1964-11-04",51.98,26.06,0.00,0.00,0.00
"CA004057180","1964-11-05",50.00,33.98,0.00,0.00,0.00
"CA004057180","1964-11-06",44.96,28.94,0.00,0.00,0.00
"CA004057180","1964-11-07",44.06,26.96,0.00,0.00,0.00
"CA004057180","1964-11-08",44.96,24.08,0.00,0.00,0.00
"CA004057180","1964-11-09",41.00,23.00,0.00,0.00,0.00
"CA004057180","1964-11-10",37.94,24.08,0.00,0.00,0.00
"CA004057180","1964-11-11",35.96,28.04,0.00,0.00,0.00
"CA004057180","1964-11-12",32.00,28.04,0.00,0.00,0.00
"CA004057180","1964-11-13",35.06,23.00,53.00,53.00,0.00
"CA004057180","1964-11-14",30.02,26.06,0.00,0.00,50.00
"CA004057180","1964-11-15",32.00,17.06,0.00,0.00,50.00
"CA004057180","1964-11-16",42.98,24.98,0.00,0.00,50.00
"CA004057180","1964-11-17",33.08,23.00,0.00,0.00,30.00
"CA004057180","1964-11-18",19.94,14.00,0.00,0.00,30.00
"CA004057180","1964-11-19",17.06,6.08,0.00,0.00,30.00
"CA004057180","1964-11-20",8.06,-5.08,0.00,0.00,30.00
"CA004057180","1964-11-21",33.08,1.04,0.00,0.00,30.00
"CA004057180","1964-11-22",30.92,19.04,0.00,0.00,30.00
"CA004057180","1964-11-23",23.00,17.06,3.00,3.00,30.00
"CA004057180","1964-11-24",26.96,21.02,0.00,0.00,30.00
"CA004057180","1964-11-25",3.92,-0.94,0.00,0.00,30.00
"CA004057180","1964-11-26",8.06,-5.98,3.00,3.00,30.00
"CA004057180","1964-11-27",6.98,-0.94,0.00,0.00,30.00
"CA004057180","1964-11-28",-0.04,-16.06,0.00,0.00,0.00
"CA004057180","1964-11-29",6.08,-14.98,0.00,0.00,0.00
"CA004057180","1964-11-30",1.04,-7.96,13.00,13.00,0.00
"CA004057180","1964-12-01",-7.96,-11.92,0.00,0.00,30.00
"CA004057180","1964-12-02",-0.04,-20.02,0.00,0.00,30.00
"CA004057180","1964-12-03",1.04,-14.98,0.00,0.00,30.00
"CA004057180","1964-12-04",10.94,-9.94,0.00,0.00,30.00
"CA004057180","1964-12-05",17.96,3.02,0.00,0.00,30.00
"CA004057180","1964-12-06",32.00,6.98,0.00,0.00,30.00
"CA004057180","1964-12-07",33.08,15.98,0.00,0.00,30.00
"CA004057180","1964-12-08",32.00,21.02,0.00,0.00,30.00
"CA004057180","1964-12-09",32.00,15.08,0.00,0.00,30.00
"CA004057180","1964-12-10",28.04,10.04,0.00,0.00,30.00
"CA004057180","1964-12-11",23.00,12.92,0.00,0.00,30.00
"CA004057180","1964-12-12",6.08,3.92,3.00,3.00,30.00
"CA004057180","1964-12-13",-0.94,-7.96,0.00,0.00,30.00
"CA004057180","1964-12-14",3.02,-14.98,43.00,43.00,30.00
"CA004057180","1964-12-15",3.02,-11.92,91.00,91.00,50.00
"CA004057180","1964-12-16",-9.94,-18.04,0.00,0.00,80.00
"CA004057180","1964-12-17",-9.04,-27.94,0.00,0.00,80.00
"CA004057180","1964-12-18",-9.04,-16.06,8.00,8.00,80.00
"CA004057180","1964-12-19",-2.02,-22.00,36.00,36.00,80.00
"CA004057180","1964-12-20",-2.02,-22.00,0.00,0.00,100.00
"CA004057180","1964-12-21",-9.94,-27.04,25.00,25.00,100.00
"CA004057180","1964-12-22",-0.94,-22.00,38.00,38.00,130.00
"CA004057180","1964-12-23",-4.00,-14.08,13.00,13.00,150.00
"CA004057180","1964-12-24",-18.04,-29.02,0.00,0.00,150.00
"CA004057180","1964-12-25",-9.94,-29.02,0.00,0.00,150.00
"CA004057180","1964-12-26",-2.02,-31.00,0.00,0.00,150.00
"CA004057180","1964-12-27",6.08,-16.06,23.00,23.00,100.00
"CA004057180","1964-12-28",1.04,-7.96,0.00,0.00,130.00
"CA004057180","1964-12-29",-9.94,-20.92,18.00,18.00,130.00
"CA004057180","1964-12-30",-9.94,-32.08,0.00,0.00,130.00
"CA004057180","1964-12-31",-4.00,-22.00,0.00,0.00,130.00
"CA004057180","1965-01-01",24.98,-14.08,0.00,0.00,130.00
"CA004057180","1965-01-02",19.04,-7.96,3.00,3.00,130.00